Home   Weather   New York   Past weeks

Flag for USA Past Weather in New York, New York, USA — Yesterday and Last 2 Weeks

Now
33 °F

Sunny.


Feels Like: 30 °F
Forecast: 34 / 44 °F
Wind: 3 mph from Northwest

Location: New York City - Central Park

Current Time: Nov 23, 2017 at 10:12:11 am

Latest Report: Nov 23, 2017 at 8:51 am


Visibility: 10 mi

Pressure: 30.12 "Hg

Humidity: 56%

Dew Point: 19 °F

Location of New YorkLocation

Past Weather in New York — Graph

°F

New York Temperature Yesterday

Maximum temperature yesterday: 55 °F (at 3:51 am)
Minimum temperature yesterday: 35 °F (at 11:51 pm)
Average temperature yesterday: 48 °F

High & Low Weather Summary for the Past Weeks

 TemperatureHumidityPressure
High59 °F (Nov 19, 5:51 am)96% (Nov 16, 5:32 am)30.56 "Hg (Nov 16, 5:32 am)
Low24 °F (Nov 11, 2:51 am)27% (Nov 11, 2:51 pm)29.22 "Hg (Nov 19, 6:51 am)
Average44 °F61%30.10 "Hg
* Reported Nov 8 8:51 am — Nov 23 8:51 am, New York. Weather by CustomWeather, © 2017

Note: Actual official high and low records may vary slightly from our data, if they occured in-between our weather recording intervals... More about our weather records

Advertising

New York Weather History for the Previous 24 Hours

Scroll right to see more
 ConditionsComfort  
Time TempWeatherWind HumidityBarometerVisibility
8:51 am
Thu, Nov 23
33 °FSunny.3 mph56%30.12 "Hg10 mi
7:51 am32 °FSunny.3 mph59%30.11 "Hg10 mi
6:51 am32 °FSunny.3 mph59%30.10 "Hg10 mi
5:51 am32 °FClear.3 mph59%30.09 "Hg10 mi
4:51 am32 °FClear.N/A59%30.07 "Hg10 mi
3:51 am33 °FClear.5 mph56%30.07 "Hg10 mi
2:51 am33 °FClear.8 mph56%30.09 "Hg10 mi
1:51 am34 °FClear.7 mph54%30.09 "Hg10 mi
12:51 am34 °FClear.9 mph54%30.08 "Hg10 mi
11:51 pm
Wed, Nov 22
35 °FClear.9 mph52%30.08 "Hg10 mi
10:51 pm36 °FClear.10 mph52%30.08 "Hg10 mi
9:51 pm37 °FClear.15 mph52%30.06 "Hg10 mi
8:51 pm38 °FPassing clouds.8 mph55%30.05 "Hg10 mi
7:51 pm40 °FPassing clouds.8 mph53%30.04 "Hg10 mi
6:51 pm41 °FOvercast.13 mph53%30.02 "Hg10 mi
5:51 pm43 °FPassing clouds.7 mph51%30.00 "Hg10 mi
4:51 pm44 °FPassing clouds.16 mph53%29.97 "Hg10 mi
3:51 pm47 °FPassing clouds.9 mph52%29.94 "Hg10 mi
2:51 pm50 °FOvercast.12 mph52%29.90 "Hg10 mi
1:51 pm51 °FScattered clouds.10 mph59%29.88 "Hg10 mi
12:51 pm52 °FPartly sunny.9 mph64%29.88 "Hg10 mi
11:51 am50 °FMostly cloudy.3 mph83%29.88 "Hg9 mi
10:51 am50 °FOvercast.5 mph86%29.89 "Hg9 mi
Weather by CustomWeather, © 2017

See weather overview